Location: Augustenthal
(51.7167°N, 10.2833°E)
Time: 04:44:23
(UTC+00:00)

Okean 1 Rocket - Pass Details

Date: 18 May 2021
Orbit: 605 x 635 km, 82.5° (Epoch: 14 June)

Event Time Altitude Azimuth Distance (km) Brightness Sun altitude
Rises 23:11:10 0° 351° (N) 2,900 8.1 -18.5°
Reaches altitude 10° 23:13:27 10° 356° (N) 1,985 6.9 -18.5°
Maximum altitude 23:17:47 60° 76° (ENE) 703 3.3 -18.5°
Enters shadow 23:19:30 34° 142° (SE) 1,013 3.7 -18.5°
